Location: Boda
(47.1872°N, 9.5454°E)
Time: 08:59:44
(UTC+00:00)

Cosmos 1766 - Pass Details

Date: 14 May 2021
Orbit: 520 x 544 km, 82.5° (Epoch: 16 June)

Event Time Altitude Azimuth Distance (km) Brightness Sun altitude
Rises 00:01:42 0° 346° (NNW) 2,704 7.9 -23.5°
Reaches altitude 10° 00:03:55 10° 342° (NNW) 1,804 6.7 -23.4°
Enters shadow 00:07:16 48° 295° (WNW) 704 3.8 -23.3°
